When you browse on this site, cookies collect data to enhance your experience and personalize the content and advertising you see.
Visit our Privacy Policy to learn more. By continuing to use the site, you agree to this use of cookies and data.
  • In Hungary
  • List of Countries
  • For 7 days
  • Water Temperature
  • Weather Map
  • News
  • Weather Widgets
  • user-avatar
    Login

    Hourly Weather San Luis

    Today, 5 June, Friday

    Time Temperature Precipitation Wind Pressure Humidity
    00:00 +6°C° 0 mm 2 mps 701 mmHg 75%
    01:00 +5°C° 0 mm 3 mps 701 mmHg 75%
    02:00 +5°C° 0 mm 3 mps 701 mmHg 75%
    03:00 +5°C° 0 mm 3 mps 701 mmHg 76%
    04:00 +5°C° 0 mm 3 mps 701 mmHg 77%
    05:00 +5°C° 0 mm 4 mps 700 mmHg 78%
    06:00 +5°C° 0 mm 4 mps 701 mmHg 76%
    07:00 +6°C° 0 mm 4 mps 701 mmHg 74%
    08:00 +6°C° 0 mm 4 mps 701 mmHg 72%
    09:00 +10°C° 0 mm 4 mps 701 mmHg 61%
    10:00 +12°C° 0 mm 4 mps 701 mmHg 50%
    11:00 +15°C° 0 mm 4 mps 702 mmHg 40%
    12:00 +17°C° 0 mm 3 mps 701 mmHg 37%
    13:00 +18°C° 0 mm 3 mps 700 mmHg 34%
    14:00 +18°C° 0 mm 2 mps 700 mmHg 32%
    15:00 +17°C° 0 mm 2 mps 699 mmHg 36%
    16:00 +16°C° 0 mm 1 mps 699 mmHg 41%
    17:00 +14°C° 0 mm 1 mps 698 mmHg 45%
    18:00 +13°C° 0 mm 1 mps 698 mmHg 50%
    19:00 +12°C° 0 mm 2 mps 698 mmHg 54%
    20:00 +9°C° 0 mm 2 mps 698 mmHg 59%
    21:00 +9°C° 0 mm 2 mps 698 mmHg 61%
    22:00 +8°C° 0 mm 2 mps 698 mmHg 63%
    23:00 +9°C° 0 mm 1 mps 698 mmHg 65%

    Tomorrow, 6 June, Saturday

    Time Temperature Precipitation Wind Pressure Humidity
    00:00 +9°C° 0 mm 1 mps 698 mmHg 66%
    01:00 +8°C° 0 mm 1 mps 698 mmHg 66%
    02:00 +8°C° 0 mm 1 mps 698 mmHg 67%
    03:00 +8°C° 0 mm 1 mps 697 mmHg 67%
    04:00 +7°C° 0 mm 2 mps 697 mmHg 67%
    05:00 +6°C° 0 mm 2 mps 696 mmHg 67%
    06:00 +7°C° 0 mm 2 mps 696 mmHg 64%
    07:00 +7°C° 0 mm 2 mps 697 mmHg 61%
    08:00 +7°C° 0 mm 2 mps 697 mmHg 57%
    09:00 +12°C° 0 mm 2 mps 697 mmHg 48%
    10:00 +15°C° 0 mm 2 mps 698 mmHg 38%
    11:00 +18°C° 0 mm 3 mps 698 mmHg 28%
    12:00 +19°C° 0 mm 3 mps 698 mmHg 26%
    13:00 +20°C° 0 mm 3 mps 697 mmHg 24%
    14:00 +21°C° 0 mm 3 mps 697 mmHg 22%
    15:00 +20°C° 0 mm 3 mps 696 mmHg 26%
    16:00 +18°C° 0 mm 3 mps 696 mmHg 29%
    17:00 +17°C° 0 mm 3 mps 695 mmHg 33%
    18:00 +14°C° 0 mm 3 mps 695 mmHg 38%
    19:00 +13°C° 0 mm 2 mps 695 mmHg 42%
    20:00 +10°C° 0 mm 2 mps 695 mmHg 47%
    21:00 +9°C° 0 mm 2 mps 695 mmHg 48%
    22:00 +9°C° 0 mm 2 mps 695 mmHg 50%
    23:00 +8°C° 0 mm 2 mps 695 mmHg 51%

    Day after tomorrow, 7 June, Sunday

    Time Temperature Precipitation Wind Pressure Humidity
    00:00 +8°C° 0 mm 2 mps 695 mmHg 52%
    01:00 +8°C° 0 mm 2 mps 695 mmHg 52%
    02:00 +8°C° 0 mm 2 mps 695 mmHg 53%
    03:00 +8°C° 0 mm 2 mps 695 mmHg 52%
    04:00 +8°C° 0 mm 2 mps 695 mmHg 52%
    05:00 +8°C° 0 mm 2 mps 695 mmHg 51%
    06:00 +8°C° 0 mm 2 mps 696 mmHg 50%
    07:00 +9°C° 0 mm 1 mps 696 mmHg 49%
    08:00 +8°C° 0 mm 1 mps 696 mmHg 48%
    09:00 +12°C° 0 mm 1 mps 697 mmHg 42%
    10:00 +15°C° 0 mm 2 mps 698 mmHg 35%
    11:00 +18°C° 0 mm 2 mps 699 mmHg 29%
    12:00 +19°C° 0 mm 2 mps 698 mmHg 29%
    13:00 +19°C° 0 mm 3 mps 698 mmHg 29%
    14:00 +20°C° 0 mm 3 mps 697 mmHg 29%
    15:00 +19°C° 0 mm 2 mps 697 mmHg 33%
    16:00 +18°C° 0 mm 2 mps 697 mmHg 38%
    17:00 +17°C° 0 mm 2 mps 697 mmHg 43%
    18:00 +15°C° 0 mm 2 mps 697 mmHg 50%
    19:00 +12°C° 0 mm 1 mps 696 mmHg 57%
    20:00 +10°C° 0 mm 1 mps 696 mmHg 63%
    21:00 +10°C° 0 mm 1 mps 696 mmHg 64%
    22:00 +10°C° 0 mm 1 mps 697 mmHg 65%
    23:00 +9°C° 0 mm 1 mps 697 mmHg 67%

    8 June, Monday

    Time Temperature Precipitation Wind Pressure Humidity
    00:00 +9°C° 0 mm 1 mps 697 mmHg 70%
    01:00 +9°C° 0 mm 1 mps 697 mmHg 73%
    02:00 +8°C° 0 mm 1 mps 697 mmHg 77%
    03:00 +8°C° 0 mm 1 mps 697 mmHg 78%
    04:00 +8°C° 0 mm 1 mps 697 mmHg 78%
    05:00 +8°C° 0 mm 1 mps 697 mmHg 79%
    06:00 +8°C° 0 mm 1 mps 697 mmHg 78%
    07:00 +8°C° 0 mm 1 mps 697 mmHg 77%
    08:00 +8°C° 0 mm 1 mps 697 mmHg 77%
    09:00 +12°C° 0 mm 2 mps 698 mmHg 65%
    10:00 +14°C° 0 mm 3 mps 699 mmHg 54%
    11:00 +18°C° 0 mm 3 mps 699 mmHg 42%
    12:00 +19°C° 0 mm 3 mps 699 mmHg 37%
    13:00 +20°C° 0 mm 3 mps 699 mmHg 31%
    14:00 +21°C° 0 mm 4 mps 698 mmHg 26%
    15:00 +19°C° 0 mm 3 mps 698 mmHg 29%
    16:00 +18°C° 0 mm 2 mps 697 mmHg 33%
    17:00 +16°C° 0 mm 1 mps 697 mmHg 36%
    18:00 +15°C° 0 mm 2 mps 697 mmHg 38%
    19:00 +13°C° 0 mm 2 mps 697 mmHg 40%
    20:00 +12°C° 0 mm 2 mps 697 mmHg 41%
    21:00 +12°C° 0 mm 2 mps 698 mmHg 44%
    22:00 +10°C° 0 mm 2 mps 698 mmHg 47%
    23:00 +10°C° 0 mm 2 mps 698 mmHg 50%

    9 June, Tuesday

    Time Temperature Precipitation Wind Pressure Humidity
    00:00 +10°C° 0 mm 3 mps 699 mmHg 51%
    01:00 +10°C° 0 mm 4 mps 699 mmHg 52%
    02:00 +8°C° 0 mm 6 mps 700 mmHg 53%
    03:00 +8°C° 0 mm 6 mps 700 mmHg 53%
    04:00 +6°C° 0 mm 7 mps 700 mmHg 54%
    05:00 +5°C° 0 mm 7 mps 700 mmHg 55%
    06:00 +5°C° 0 mm 7 mps 700 mmHg 54%
    07:00 +5°C° 0 mm 6 mps 700 mmHg 53%
    08:00 +5°C° 0 mm 6 mps 701 mmHg 52%
    09:00 +8°C° 0 mm 5 mps 701 mmHg 47%
    10:00 +12°C° 0 mm 4 mps 701 mmHg 43%
    11:00 +14°C° 0 mm 4 mps 701 mmHg 38%
    12:00 +15°C° 0 mm 4 mps 700 mmHg 37%
    13:00 +17°C° 0 mm 4 mps 699 mmHg 35%
    14:00 +18°C° 0 mm 4 mps 698 mmHg 34%
    15:00 +17°C° 0 mm 4 mps 698 mmHg 35%
    16:00 +16°C° 0 mm 3 mps 697 mmHg 37%
    17:00 +14°C° 0 mm 3 mps 697 mmHg 38%
    18:00 +13°C° 0 mm 2 mps 696 mmHg 43%
    19:00 +9°C° 0 mm 2 mps 696 mmHg 48%
    20:00 +8°C° 0 mm 1 mps 696 mmHg 53%
    21:00 +7°C° 0 mm 1 mps 696 mmHg 56%
    22:00 +7°C° 0 mm 1 mps 696 mmHg 59%
    23:00 +7°C° 0 mm 1 mps 696 mmHg 62%

    10 June, Wednesday

    Time Temperature Precipitation Wind Pressure Humidity
    00:00 +6°C° 0 mm 2 mps 695 mmHg 63%
    01:00 +6°C° 0 mm 2 mps 695 mmHg 64%
    02:00 +7°C° 0 mm 2 mps 695 mmHg 65%
    03:00 +7°C° 0 mm 2 mps 695 mmHg 67%
    04:00 +7°C° 0 mm 2 mps 695 mmHg 70%
    05:00 +7°C° 0 mm 3 mps 695 mmHg 73%
    06:00 +7°C° 0 mm 2 mps 696 mmHg 74%
    07:00 +7°C° 0 mm 2 mps 696 mmHg 75%
    08:00 +7°C° 0 mm 2 mps 696 mmHg 76%
    09:00 +10°C° 0 mm 2 mps 697 mmHg 67%
    10:00 +13°C° 0 mm 1 mps 698 mmHg 58%
    11:00 +16°C° 0 mm 1 mps 698 mmHg 49%
    12:00 +18°C° 0 mm 1 mps 698 mmHg 46%
    13:00 +18°C° 0 mm 2 mps 697 mmHg 44%
    14:00 +19°C° 0 mm 2 mps 697 mmHg 41%
    15:00 +18°C° 0 mm 2 mps 697 mmHg 45%
    16:00 +18°C° 0 mm 1 mps 696 mmHg 48%
    17:00 +16°C° 0 mm 1 mps 696 mmHg 52%
    18:00 +14°C° 0 mm 1 mps 695 mmHg 59%
    19:00 +12°C° 0 mm 1 mps 695 mmHg 67%
    20:00 +11°C° 0 mm 1 mps 695 mmHg 74%
    21:00 +10°C° 0 mm 2 mps 695 mmHg 76%
    22:00 +10°C° 0 mm 2 mps 695 mmHg 77%
    23:00 +9°C° 0 mm 3 mps 694 mmHg 79%
    Show more